CW2931 Weather Reports


Display with metric or nautical units.
time (UTC)temp
F
wind
direction
speed
MPH
gust
MPH
rain 1hr
in
rain 24hr
in
rain mn
in
humidity
%
barometer
mb
20260504140604 62 229 0.0 0.0 0.00 0.00 0.00 60 1003.9
20260504140104 62 259 0.0 0.0 0.00 0.00 0.00 60 1003.9
20260504130606 58 237 0.0 0.0 0.00 0.00 0.00 65 1004.5
20260504120103 54 221 0.0 0.0 0.00 0.00 0.00 71 1005.0
20260504110103 52 201 0.0 0.0 0.00 0.00 0.00 72 1004.9
20260504100604 52 242 0.0 0.0 0.00 0.00 0.00 69 1004.5
20260504100104 53 237 0.0 0.0 0.00 0.00 0.00 69 1004.5
20260504090104 53 210 0.0 0.0 0.00 0.00 0.00 67 1004.8
20260504081604 53 223 0.0 0.0 0.00 0.00 0.00 66 1005.1
20260504081104 53 243 0.0 0.0 0.00 0.00 0.00 66 1005.1
20260504080604 53 236 0.0 0.0 0.00 0.00 0.00 66 1005.2
20260504080103 53 209 0.0 0.0 0.00 0.00 0.00 66 1005.3
20260504070104 53 197 0.0 0.0 0.00 0.00 0.00 66 1005.9
20260504060104 53 206 0.0 0.0 0.00 0.00 0.00 66 1006.9
20260504050606 53 185 0.0 0.0 0.00 0.00 0.00 64 1007.8
20260504050106 53 236 0.0 0.0 0.00 0.00 0.00 64 1007.8
20260504045605 53 197 0.0 0.0 0.00 0.00 0.00 64 1007.8
20260504044605 54 191 0.0 0.0 0.00 0.00 0.00 63 1007.9
20260504044105 54 179 0.0 0.0 0.00 0.00 0.00 63 1007.9
20260504043606 54 193 0.0 0.0 0.00 0.00 0.00 63 1007.9
20260504043105 54 178 0.0 0.0 0.00 0.00 0.00 63 1008.0
20260504042605 54 209 0.0 0.0 0.00 0.00 0.00 63 1008.1
20260504042106 54 218 0.0 0.0 0.00 0.00 0.00 63 1008.2
20260504041605 54 196 0.0 0.0 0.00 0.00 0.00 62 1008.2
20260504041106 54 179 0.0 0.0 0.00 0.00 0.00 63 1008.2
20260504040606 54 195 0.0 0.0 0.00 0.00 0.00 62 1008.3
20260504040105 54 217 0.0 0.0 0.00 0.00 0.00 62 1008.3
20260504035605 54 192 0.0 0.0 0.00 0.00 0.00 63 1008.3
20260504035106 54 211 0.0 0.0 0.00 0.00 0.00 63 1008.4
20260504034605 54 213 0.0 0.0 0.00 0.00 0.00 63 1008.4
20260504033605 54 192 0.0 0.0 0.00 0.00 0.00 64 1008.6
20260504033105 53 187 0.0 0.0 0.00 0.00 0.00 65 1008.6
20260504032605 53 194 0.0 0.0 0.00 0.00 0.00 65 1008.8
20260504032105 53 194 0.0 0.0 0.00 0.00 0.00 65 1008.8
20260504031605 53 203 0.0 0.0 0.00 0.00 0.00 65 1008.8
20260504030605 53 190 0.0 0.0 0.00 0.00 0.00 65 1008.9
20260504030106 53 207 0.0 0.0 0.00 0.00 0.00 65 1009.0
20260504025605 53 185 0.0 0.0 0.00 0.00 0.00 65 1009.0
20260504025105 53 163 0.0 0.0 0.00 0.00 0.00 65 1009.0
20260504024106 53 180 0.0 0.0 0.00 0.00 0.00 64 1009.1
20260504023606 54 233 0.0 0.0 0.00 0.00 0.00 64 1009.1
20260504023105 54 195 0.0 0.0 0.00 0.00 0.00 64 1009.1
20260504022105 54 184 0.0 0.0 0.00 0.00 0.00 63 1009.1
20260504021606 54 188 0.0 0.0 0.00 0.00 0.00 63 1009.2
20260504021105 54 201 0.0 0.0 0.00 0.00 0.00 63 1009.2
20260504020606 54 228 0.0 0.0 0.00 0.00 0.00 63 1009.3
20260504020105 55 220 0.0 0.0 0.00 0.00 0.00 62 1009.3
20260504015606 55 195 0.0 0.0 0.00 0.00 0.00 62 1009.3
20260504015105 55 198 0.0 0.0 0.00 0.00 0.00 62 1009.2
20260504014605 55 220 0.0 0.0 0.00 0.00 0.00 62 1009.1
20260504014106 55 215 0.0 0.0 0.00 0.00 0.00 61 1009.2
20260504013606 55 206 0.0 0.0 0.00 0.00 0.00 61 1009.2
20260504012605 56 227 0.0 0.0 0.00 0.00 0.00 60 1009.2
20260504012105 56 238 0.0 0.0 0.00 0.00 0.00 60 1009.2
20260504011605 56 217 0.0 0.0 0.00 0.00 0.00 60 1009.2
20260504011106 56 229 0.0 0.0 0.00 0.00 0.00 59 1009.2
20260504010605 56 215 0.0 0.0 0.00 0.00 0.00 59 1009.3
20260504010105 56 221 0.0 0.0 0.00 0.00 0.00 58 1009.4
20260504005605 56 225 0.0 0.0 0.00 0.00 0.00 58 1009.4
20260504004105 57 225 0.0 0.0 0.00 0.00 0.00 56 1009.5
20260504003605 57 199 0.0 0.0 0.00 0.00 0.00 56 1009.5
20260504003105 57 234 0.0 0.0 0.00 0.00 0.00 55 1009.4
20260504002605 57 237 0.0 0.0 0.00 0.00 0.00 55 1009.5
20260504002105 58 223 0.0 0.0 0.00 0.00 0.00 54 1009.4
20260504001605 58 231 0.0 0.0 0.00 0.00 0.00 54 1009.3
20260504001105 59 219 0.0 0.0 0.00 0.00 0.00 53 1009.4
20260504000605 59 236 0.0 0.0 0.00 0.00 0.00 53 1009.3
20260504000105 59 219 0.0 0.0 0.00 0.00 0.00 53 1009.2
20260503235606 60 214 0.0 0.0 0.00 0.00 0.00 52 1009.1
20260503235105 60 242 0.0 0.0 0.00 0.00 0.00 51 1009.0
20260503234605 61 224 0.0 0.0 0.00 0.00 0.00 49 1009.0
20260503234105 61 221 0.0 0.0 0.00 0.00 0.00 46 1008.9
20260503233105 62 233 0.0 0.0 0.00 0.00 0.00 44 1008.7
20260503232605 62 244 0.0 0.0 0.00 0.00 0.00 43 1008.7
20260503232105 62 221 0.0 0.0 0.00 0.00 0.00 42 1008.8
20260503231105 62 218 0.0 0.0 0.00 0.00 0.00 42 1008.7
20260503230606 63 212 0.0 0.0 0.00 0.00 0.00 41 1008.8
20260503230106 63 213 0.0 0.0 0.00 0.00 0.00 41 1008.8
20260503225105 63 268 0.0 0.0 0.00 0.00 0.00 41 1008.9
20260503224605 63 228 0.0 0.0 0.00 0.00 0.00 41 1008.9
20260503224105 63 228 0.0 0.0 0.00 0.00 0.00 41 1008.9
20260503223605 64 237 0.0 0.0 0.00 0.00 0.00 41 1009.0
20260503223105 64 238 0.0 0.0 0.00 0.00 0.00 41 1009.0
20260503222605 64 244 0.0 0.0 0.00 0.00 0.00 41 1009.0
20260503222105 64 209 0.0 0.0 0.00 0.00 0.00 40 1009.1
20260503221606 64 243 0.0 0.0 0.00 0.00 0.00 40 1009.1
20260503221105 64 253 0.0 0.0 0.00 0.00 0.00 40 1009.0
20260503220605 64 267 0.0 0.0 0.00 0.00 0.00 40 1009.0
20260503220105 64 217 0.0 0.0 0.00 0.00 0.00 39 1009.0
20260503215605 64 264 0.0 0.0 0.00 0.00 0.00 39 1009.1
20260503215105 64 259 0.0 0.0 0.00 0.00 0.00 40 1009.0
20260503214605 64 236 0.0 0.0 0.00 0.00 0.00 40 1009.0
20260503214105 64 238 0.0 0.0 0.00 0.00 0.00 39 1009.0
20260503213605 64 218 0.0 0.0 0.00 0.00 0.00 39 1009.1
20260503213106 64 219 0.0 0.0 0.00 0.00 0.00 39 1009.1
20260503212605 64 258 0.0 0.0 0.00 0.00 0.00 38 1009.1
20260503212105 64 224 0.0 0.0 0.00 0.00 0.00 39 1009.1
20260503211605 64 228 0.0 0.0 0.00 0.00 0.00 38 1009.1
20260503210605 64 224 0.0 0.0 0.00 0.00 0.00 38 1009.1
20260503210105 64 224 0.0 0.0 0.00 0.00 0.00 38 1009.1
20260503205105 64 254 0.0 0.0 0.00 0.00 0.00 37 1009.3
20260503204605 65 222 0.0 0.0 0.00 0.00 0.00 37 1009.3
20260503204105 66 252 0.0 0.0 0.00 0.00 0.00 37 1009.2
20260503203605 66 253 0.0 0.0 0.00 0.00 0.00 37 1009.3
20260503202105 65 234 0.0 0.0 0.00 0.00 0.00 37 1009.5
20260503201605 65 227 0.0 0.0 0.00 0.00 0.00 37 1009.5
20260503201105 64 234 0.0 0.0 0.00 0.00 0.00 38 1009.6
20260503200609 64 242 0.0 0.0 0.00 0.00 0.00 39 1009.7